CW2550 Weather Reports


Display with metric or nautical units.
time (UTC)temp
F
wind
direction
speed
MPH
gust
MPH
rain 1hr
in
rain 24hr
in
rain mn
in
humidity
%
barometer
mb
20260902083049 65 155 3.0 19.0 0.02 0.26 0.26 93 1012.1
20260902081551 64 26 3.0 6.0 0.05 0.26 0.26 93 1011.0
20260902080054 65 5 2.0 7.0 0.09 0.25 0.25 92 1010.9
20260902074608 65 62 3.0 11.0 0.12 0.25 0.25 92 1010.5
20260902073044 65 0 0.0 10.0 0.14 0.24 0.24 92 1011.7
20260902071553 66 45 3.0 6.0 0.16 0.21 0.21 92 1012.6
20260902070054 66 0 0.0 10.0 0.12 0.16 0.16 91 1013.4
20260902064551 67 55 2.0 5.0 0.10 0.13 0.13 91 1013.8
20260902063113 67 190 7.0 21.0 0.07 0.09 0.09 90 1016.3
20260902061554 68 229 7.0 14.0 0.04 0.05 0.05 90 1016.0
20260902060106 68 201 3.0 5.0 0.04 0.04 0.04 88 1013.5
20260902054552 69 170 1.0 4.0 0.03 0.03 0.03 87 1012.3
20260902053043 69 13 3.0 6.0 0.02 0.02 0.02 87 1011.0
20260902051557 70 323 1.0 4.0 0.01 0.01 0.01 86 1012.5
20260902050049 70 0 0.0 0.0 0.00 0.00 0.00 85 1013.1
20260902044546 71 0 0.0 0.0 0.00 0.00 0.00 85 1012.4
20260902043109 71 0 0.0 0.0 0.00 0.00 0.00 86 1011.9
20260902041603 70 0 0.0 0.0 0.00 0.00 0.00 87 1011.8
20260902040050 69 0 0.0 0.0 0.00 0.00 0.00 88 1012.1
20260902034550 70 0 0.0 0.0 0.00 0.00 0.00 89 1012.1
20260902033054 70 0 0.0 0.0 0.00 0.00 0.00 88 1012.6
20260902031554 70 0 0.0 0.0 0.00 0.00 0.00 88 1012.9
20260902030050 70 0 0.0 0.0 0.00 0.00 0.00 88 1012.8
20260902024557 70 0 0.0 0.0 0.00 0.00 0.00 88 1012.7
20260902023053 71 0 0.0 0.0 0.00 0.00 0.00 87 1012.6
20260902021554 71 0 0.0 0.0 0.00 0.00 0.00 86 1012.7
20260902020050 72 0 0.0 0.0 0.00 0.00 0.00 86 1012.6
20260902014551 72 0 0.0 0.0 0.00 0.00 0.00 85 1012.4
20260902013056 74 0 0.0 0.0 0.00 0.00 0.00 84 1012.4
20260902011544 75 0 0.0 0.0 0.00 0.00 0.00 83 1012.3
20260902010056 76 0 0.0 0.0 0.00 0.00 0.00 81 1012.1
20260902004558 77 0 0.0 0.0 0.00 0.00 0.00 79 1012.2
20260902003125 78 0 0.0 0.0 0.00 0.00 0.00 79 1012.4
20260902001545 79 0 0.0 0.0 0.00 0.00 0.00 78 1012.4
20260902000057 80 0 0.0 0.0 0.00 0.00 0.00 77 1012.6
20260901234549 81 0 0.0 0.0 0.00 0.00 0.00 75 1012.7
20260901233043 81 0 0.0 0.0 0.00 0.00 0.00 74 1012.7
20260901231555 81 0 0.0 0.0 0.00 0.00 0.00 73 1012.5
20260901230043 82 0 0.0 0.0 0.00 0.00 0.00 74 1012.4
20260901224554 81 0 0.0 0.0 0.00 0.00 0.00 70 1012.5
20260901223044 81 0 0.0 0.0 0.00 0.00 0.00 71 1012.4
20260901221544 81 0 0.0 0.0 0.00 0.00 0.00 71 1012.4
20260901220053 81 0 0.0 0.0 0.00 0.00 0.00 71 1012.5
20260901214546 82 0 0.0 0.0 0.00 0.00 0.00 69 1012.7
20260901213056 82 0 0.0 0.0 0.00 0.00 0.00 69 1012.4
20260901211553 82 0 0.0 0.0 0.00 0.00 0.00 72 1012.4
20260901210115 82 0 0.0 0.0 0.00 0.00 0.00 70 1012.3
20260901204558 83 0 0.0 0.0 0.00 0.00 0.00 70 1012.7
20260901203052 83 0 0.0 0.0 0.00 0.00 0.00 69 1012.8
20260901201549 83 0 0.0 0.0 0.00 0.00 0.00 66 1012.8
20260901200045 84 0 0.0 0.0 0.00 0.00 0.00 64 1012.8
20260901194604 84 0 0.0 0.0 0.00 0.00 0.00 66 1013.0
20260901193050 84 0 0.0 0.0 0.00 0.00 0.00 62 1013.2
20260901191607 85 0 0.0 0.0 0.00 0.00 0.00 61 1013.2
20260901190120 85 0 0.0 0.0 0.00 0.00 0.00 58 1013.3
20260901184552 84 0 0.0 0.0 0.00 0.00 0.00 58 1013.3
20260901183050 84 0 0.0 0.0 0.00 0.00 0.00 58 1013.1
20260901181546 84 0 0.0 0.0 0.00 0.00 0.00 55 1013.4
20260901180054 85 0 0.0 0.0 0.00 0.00 0.00 55 1013.7
20260901174555 84 0 0.0 2.0 0.00 0.00 0.00 55 1013.9
20260901173059 83 0 0.0 1.0 0.00 0.00 0.00 54 1013.9
20260901171627 84 0 0.0 0.0 0.00 0.00 0.00 55 1013.9
20260901170104 83 0 0.0 0.0 0.00 0.00 0.00 56 1014.1
20260901164609 82 0 0.0 0.0 0.00 0.00 0.00 55 1014.2
20260901163105 81 0 0.0 0.0 0.00 0.00 0.00 62 1014.3
20260901161545 80 0 0.0 0.0 0.00 0.00 0.00 63 1014.4
20260901160053 79 0 0.0 0.0 0.00 0.00 0.00 66 1014.3
20260901154557 77 0 0.0 1.0 0.00 0.00 0.00 71 1014.3
20260901153051 75 0 0.0 0.0 0.00 0.00 0.00 75 1014.3
20260901151550 73 0 0.0 0.0 0.00 0.00 0.00 81 1014.1
20260901144555 69 0 0.0 0.0 0.00 0.00 0.00 91 1014.4
20260901143055 68 0 0.0 0.0 0.00 0.00 0.00 94 1014.5
20260901141552 67 0 0.0 0.0 0.00 0.00 0.00 94 1014.5
20260901140056 67 0 0.0 0.0 0.00 0.00 0.00 95 1014.8
20260901134602 66 0 0.0 0.0 0.00 0.00 0.00 95 1014.6
20260901133103 65 0 0.0 0.0 0.00 0.00 0.00 95 1014.7
20260901131554 64 0 0.0 0.0 0.00 0.00 0.00 95 1014.4
20260901130058 63 0 0.0 0.0 0.00 0.00 0.00 95 1014.3
20260901124554 62 0 0.0 2.0 0.00 0.00 0.00 94 1014.2
20260901123054 63 202 2.0 6.0 0.00 0.00 0.00 94 1014.1
20260901121559 62 200 3.0 6.0 0.00 0.00 0.00 94 1014.0
20260901120048 62 0 0.0 2.0 0.00 0.00 0.00 94 1013.9
20260901114555 61 0 0.0 0.0 0.00 0.00 0.00 93 1013.7
20260901113054 62 0 0.0 0.0 0.00 0.00 0.00 94 1013.6
20260901111557 61 0 0.0 0.0 0.00 0.00 0.00 93 1013.3
20260901110049 62 0 0.0 0.0 0.00 0.00 0.00 93 1013.3
20260901104547 62 0 0.0 4.0 0.00 0.00 0.00 94 1013.3
20260901103049 62 194 1.0 4.0 0.00 0.00 0.00 94 1013.3
20260901101549 63 196 2.0 4.0 0.00 0.00 0.00 94 1013.2
20260901100059 63 207 1.0 4.0 0.00 0.00 0.00 94 1013.2
20260901094552 62 0 0.0 0.0 0.00 0.00 0.00 92 1013.2
20260901093047 63 0 0.0 0.0 0.00 0.00 0.00 93 1013.0
20260901091551 63 0 0.0 0.0 0.00 0.00 0.00 93 1013.1
20260901090059 63 0 0.0 0.0 0.00 0.00 0.00 93 1013.2
20260901084550 63 0 0.0 0.0 0.00 0.00 0.00 93 1013.0